Weather History for K2W6 - March, 2014

Change the Weather History Date:

Thursday, March 20, 2014

  Actual Average (KNHK) Record (KNHK)
Temperature  
Mean Temperature 50 °F -  
Max Temperature 60 °F 56 °F 73 °F (1985)
Min Temperature 41 °F 36 °F 25 °F (1981)
Degree Days  
Heating Degree Days 14    
Moisture  
Dew Point 31 °F    
Average Humidity 57    
Maximum Humidity 93    
Minimum Humidity 19    
Precipitation  
Precipitation 0.00 in - - ()
Sea Level Pressure  
Sea Level Pressure 29.91 in    
Wind  
Wind Speed 7 mph (West)    
Max Wind Speed 21 mph    
Max Gust Speed 30 mph    
Visibility 8 miles    
Events      
Averages and records for this station are not official NWS values.
T = Trace of Precipitation, MM = Missing Value Source: NWS Daily Summary

Daily Weather History Graph

Daily Weather History Graph

Search for Another Location

Airport or City:

Trip Planner

Search our weather history database for the weather conditions in past years. The results will help you decide how hot, cold, wet, or windy it might be!

Date:

Astronomy

Mar. 20, 2014 Rise Set
Actual Time 7:09 AM EDT 7:18 PM EDT
Civil Twilight 6:43 AM EDT 7:44 PM EDT
Nautical Twilight 6:12 AM EDT 8:15 PM EDT
Astronomical Twilight 5:41 AM EDT 8:46 PM EDT
Moon 11:32 PM EDT (3/20) 9:17 AM EDT (3/20)
Length of Visible Light 13h 01m
Length of Day
12h 08m
Waning Gibbous, 84% of the Moon is Illuminated
Mar 20
Waning Gibbous
Mar 23
Last Quarter
Mar 30
New
Apr 7
First Quarter
Apr 15
Full

Hourly Weather History & Observations

Time (EDT) Temp. Windchill Dew Point Humidity Pressure Visibility Wind Dir Wind Speed Gust Speed Precip Events Conditions
12:17 AM 41.0 °F 39.0 °F 39.2 °F 93% 29.90 in 5.0 mi SW 3.5 mph - N/A   Overcast
12:37 AM 41.0 °F 39.0 °F 39.2 °F 93% 29.90 in 3.0 mi SW 3.5 mph - N/A   Overcast
12:57 AM 41.0 °F 39.0 °F 39.2 °F 93% 29.88 in 2.5 mi SSW 3.5 mph - N/A   Overcast
1:17 AM 41.0 °F 39.0 °F 39.2 °F 93% 29.88 in 3.0 mi SSW 3.5 mph - N/A   Overcast
1:37 AM 41.0 °F 38.0 °F 39.2 °F 93% 29.86 in 3.0 mi South 4.6 mph - N/A   Overcast
1:57 AM 42.8 °F 39.3 °F 41.0 °F 93% 29.86 in 4.0 mi SSW 5.8 mph - N/A   Overcast
2:17 AM 42.8 °F - 41.0 °F 93% 29.86 in 3.0 mi Calm Calm - N/A   Overcast
2:37 AM 42.8 °F 40.1 °F 41.0 °F 93% 29.87 in 3.0 mi WSW 4.6 mph - N/A   Overcast
2:58 AM 42.8 °F 40.1 °F 41.0 °F 93% 29.87 in 3.0 mi SW 4.6 mph - N/A   Overcast
3:18 AM 42.8 °F 39.3 °F 41.0 °F 93% 29.86 in 3.0 mi SSW 5.8 mph - N/A   Overcast
3:38 AM 42.8 °F 40.1 °F 41.0 °F 93% 29.86 in 4.0 mi SW 4.6 mph - N/A   Overcast
3:58 AM 42.8 °F 40.1 °F 41.0 °F 93% 29.86 in 7.0 mi WSW 4.6 mph - N/A   Overcast
4:18 AM 42.8 °F 38.6 °F 41.0 °F 93% 29.86 in 7.0 mi SW 6.9 mph - N/A   Overcast
4:38 AM 42.8 °F 38.6 °F 41.0 °F 93% 29.85 in 7.0 mi SW 6.9 mph - N/A   Overcast
4:58 AM 42.8 °F 39.3 °F 41.0 °F 93% 29.86 in 7.0 mi SW 5.8 mph - N/A   Overcast
5:18 AM 42.8 °F 38.6 °F 41.0 °F 93% 29.86 in 7.0 mi SW 6.9 mph - N/A   Overcast
5:38 AM 44.6 °F 40.2 °F 41.0 °F 87% 29.86 in 10.0 mi SW 8.1 mph - N/A   Overcast
5:58 AM 44.6 °F 40.2 °F 41.0 °F 87% 29.87 in 10.0 mi SW 8.1 mph - N/A   Overcast
6:18 AM 42.8 °F 37.5 °F 41.0 °F 93% 29.87 in 7.0 mi SW 9.2 mph - N/A   Mostly Cloudy
6:38 AM 42.8 °F 37.5 °F 41.0 °F 93% 29.88 in 7.0 mi WSW 9.2 mph - N/A   Overcast
6:58 AM 42.8 °F 38.0 °F 41.0 °F 93% 29.88 in 7.0 mi WSW 8.1 mph - N/A   Overcast
7:18 AM 42.8 °F 39.3 °F 41.0 °F 93% 29.89 in 5.0 mi WSW 5.8 mph - N/A   Scattered Clouds
7:38 AM 42.8 °F 41.1 °F 41.0 °F 93% 29.91 in 3.0 mi NNW 3.5 mph - N/A   Scattered Clouds
7:58 AM 42.8 °F - 41.0 °F 93% 29.91 in 4.0 mi Calm Calm - N/A   Overcast
8:18 AM 42.8 °F 40.1 °F 41.0 °F 93% 29.91 in 5.0 mi WSW 4.6 mph - N/A   Overcast
8:38 AM 44.6 °F 42.2 °F 41.0 °F 87% 29.91 in 5.0 mi West 4.6 mph - N/A   Overcast
8:58 AM 44.6 °F 43.1 °F 41.0 °F 87% 29.92 in 7.0 mi WNW 3.5 mph - N/A   Overcast
9:18 AM 44.6 °F 43.1 °F 41.0 °F 87% 29.92 in 10.0 mi West 3.5 mph - N/A   Mostly Cloudy
9:38 AM 46.4 °F 44.3 °F 42.8 °F 87% 29.93 in 10.0 mi West 4.6 mph - N/A   Scattered Clouds
9:58 AM 48.2 °F - 42.8 °F 82% 29.93 in 10.0 mi WSW 6.9 mph - N/A   Clear
10:18 AM 50.0 °F - 41.0 °F 71% 29.93 in 10.0 mi West 8.1 mph - N/A   Clear
10:38 AM 51.8 °F - 39.2 °F 62% 29.93 in 10.0 mi West 8.1 mph - N/A   Clear
10:58 AM 51.8 °F - 37.4 °F 58% 29.93 in 10.0 mi WNW 10.4 mph - N/A   Clear
11:19 AM 53.6 °F - 35.6 °F 51% 29.92 in 10.0 mi West 11.5 mph 19.6 mph N/A   Clear
11:39 AM 53.6 °F - 33.8 °F 47% 29.92 in 10.0 mi West 12.7 mph 18.4 mph N/A   Clear
11:59 AM 53.6 °F - 35.6 °F 51% 29.91 in 10.0 mi WSW 13.8 mph 19.6 mph N/A   Clear
12:19 PM 55.4 °F - 33.8 °F 44% 29.92 in 10.0 mi West 13.8 mph 23.0 mph N/A   Clear
12:39 PM 55.4 °F - 32.0 °F 41% 29.92 in 10.0 mi West 9.2 mph 23.0 mph N/A   Clear
12:59 PM 55.4 °F - 32.0 °F 41% 29.92 in 10.0 mi West 16.1 mph 23.0 mph N/A   Clear
1:19 PM 57.2 °F - 32.0 °F 38% 29.91 in 10.0 mi WNW 11.5 mph 19.6 mph N/A   Scattered Clouds
1:39 PM 57.2 °F - 32.0 °F 38% 29.90 in 10.0 mi WSW 16.1 mph 23.0 mph N/A   Scattered Clouds
1:59 PM 59.0 °F - 30.2 °F 34% 29.90 in 10.0 mi West 10.4 mph 18.4 mph N/A   Scattered Clouds
2:19 PM 59.0 °F - 24.8 °F 27% 29.89 in 10.0 mi West 18.4 mph 23.0 mph N/A   Clear
2:39 PM 59.0 °F - 23.0 °F 25% 29.88 in 10.0 mi West 17.3 mph 26.5 mph N/A   Clear
2:59 PM 59.0 °F - 21.2 °F 23% 29.89 in 10.0 mi West 20.7 mph 26.5 mph N/A   Clear
3:19 PM 59.0 °F - 23.0 °F 25% - 10.0 mi West 17.3 mph 25.3 mph N/A   Clear
3:39 PM 59.0 °F - 23.0 °F 25% 29.88 in 10.0 mi West 15.0 mph 23.0 mph N/A   Clear
3:59 PM 60.8 °F - 17.6 °F 19% 29.88 in 10.0 mi WNW 17.3 mph 28.8 mph N/A   Clear
4:19 PM 59.0 °F - 15.8 °F 19% 29.88 in 10.0 mi West 17.3 mph 29.9 mph N/A   Clear
4:39 PM 59.0 °F - 17.6 °F 20% 29.88 in 10.0 mi WNW 10.4 mph 24.2 mph N/A   Clear
4:59 PM 59.0 °F - 17.6 °F 20% 29.88 in 10.0 mi WNW 12.7 mph 23.0 mph N/A   Clear
5:19 PM 59.0 °F - 17.6 °F 20% 29.89 in 10.0 mi West 16.1 mph 25.3 mph N/A   Clear
5:39 PM 59.0 °F - 17.6 °F 20% 29.89 in 10.0 mi West 13.8 mph 23.0 mph N/A   Clear
5:59 PM 59.0 °F - 17.6 °F 20% 29.89 in 10.0 mi West 13.8 mph 20.7 mph N/A   Clear
6:19 PM 57.2 °F - 15.8 °F 20% 29.90 in 10.0 mi WNW 9.2 mph 18.4 mph N/A   Clear
6:39 PM 57.2 °F - 17.6 °F 21% 29.91 in 10.0 mi West 9.2 mph - N/A   Clear
6:59 PM 55.4 °F - 17.6 °F 23% 29.91 in 10.0 mi West 4.6 mph - N/A   Clear
7:19 PM 55.4 °F - 17.6 °F 23% 29.92 in 10.0 mi WNW 4.6 mph - N/A   Clear
7:39 PM 53.6 °F - 17.6 °F 24% 29.93 in 10.0 mi Calm Calm - N/A   Clear
7:59 PM 51.8 °F - 19.4 °F 28% 29.94 in 10.0 mi WNW 3.5 mph - N/A   Clear
8:20 PM 51.8 °F - 19.4 °F 28% 29.95 in 10.0 mi Calm Calm - N/A   Clear
8:40 PM 51.8 °F - 19.4 °F 28% 29.96 in 10.0 mi WNW 3.5 mph - N/A   Clear
9:00 PM 50.0 °F - 19.4 °F 30% 29.97 in 10.0 mi WNW 4.6 mph - N/A   Clear
9:20 PM 50.0 °F - 19.4 °F 30% 29.98 in 10.0 mi WNW 5.8 mph - N/A   Clear
9:40 PM 50.0 °F - 19.4 °F 30% 29.99 in 10.0 mi NW 4.6 mph - N/A   Clear
10:00 PM 50.0 °F - 21.2 °F 32% 30.00 in 10.0 mi NW 4.6 mph - N/A   Clear
10:20 PM 48.2 °F - 21.2 °F 34% 30.01 in 10.0 mi WNW 3.5 mph - N/A   Clear
10:40 PM 48.2 °F - 21.2 °F 34% 30.01 in 10.0 mi WNW 5.8 mph - N/A   Clear
11:00 PM 46.4 °F - 21.2 °F 37% 30.02 in 10.0 mi Calm Calm - N/A   Clear
11:20 PM 46.4 °F 44.3 °F 21.2 °F 37% 30.03 in 10.0 mi WNW 4.6 mph - N/A   Clear
11:40 PM 46.4 °F - 21.2 °F 37% 30.03 in 10.0 mi Calm Calm - N/A   Clear